Photometre #246[Polarized_P] Barcelona AOT

File : 20200928_246.hum

28/09/2020,06:33:51,TEMP=14.3,BA=5.64,STAT.A=Abs.,ExtBa=14.15
28/09/2020,06:37:18,TEMP=14.4,BA=5.64,STAT.A=Abs.,ExtBa=13.98
28/09/2020,06:41:20,TEMP=14.5,BA=5.64,STAT.A=Abs.,ExtBa=13.85
28/09/2020,06:46:09,TEMP=14.6,BA=5.64,STAT.A=Abs.,ExtBa=13.81
28/09/2020,06:51:57,TEMP=14.8,BA=5.64,STAT.A=Abs.,ExtBa=13.85
28/09/2020,06:59:06,TEMP=14.9,BA=5.64,STAT.A=Abs.,ExtBa=13.88
28/09/2020,07:08:08,TEMP=15.1,BA=5.64,STAT.B=Abs.,ExtBa=13.95
28/09/2020,07:14:58,TEMP=15.4,BA=5.64,STAT.A=Abs.,ExtBa=13.17
28/09/2020,07:17:21,TEMP=15.5,BA=5.64,STAT.A=Abs.,ExtBa=13.28
28/09/2020,07:22:49,TEMP=15.5,BA=5.64,STAT.A=Abs.,ExtBa=13.51
28/09/2020,07:29:03,TEMP=15.7,BA=5.64,STAT.A=Abs.,ExtBa=13.61
28/09/2020,07:36:15,TEMP=16.0,BA=5.64,STAT.C=Abs.,ExtBa=13.69
28/09/2020,07:49:14,TEMP=17.8,BA=5.64,STAT.A=Abs.,ExtBa=13.19
28/09/2020,07:54:28,TEMP=17.0,BA=5.64,STAT.A=Abs.,ExtBa=13.43
28/09/2020,08:06:21,TEMP=17.8,BA=5.64,STAT.A=Abs.,ExtBa=13.66
28/09/2020,08:21:01,TEMP=19.0,BA=5.64,STAT.A=Abs.,ExtBa=13.75
28/09/2020,08:39:42,TEMP=20.6,BA=5.64,STAT.B=Abs.,ExtBa=13.80
28/09/2020,08:46:21,TEMP=20.7,BA=5.64,STAT.F
28/09/2020,09:00:50,TEMP=21.2,BA=5.60,STAT.b=Abs.
28/09/2020,09:12:27,TEMP=20.0,BA=5.64,STAT.D=Abs.,ExtBa=13.67
28/09/2020,09:27:28,TEMP=20.8,BA=5.64,STAT.D=Abs.,ExtBa=13.74
28/09/2020,09:42:30,TEMP=21.6,BA=5.64,STAT.F
28/09/2020,09:57:21,TEMP=22.9,BA=5.56,STAT.b=Abs.
28/09/2020,10:12:27,TEMP=22.6,BA=5.64,STAT.D=Abs.,ExtBa=13.66
28/09/2020,10:27:21,TEMP=22.6,BA=5.64,STAT.b=Abs.
28/09/2020,10:42:29,TEMP=23.1,BA=5.64,STAT.F
28/09/2020,10:57:21,TEMP=24.9,BA=5.56,STAT.b=Abs.
28/09/2020,11:12:27,TEMP=23.8,BA=5.64,STAT.D=Abs.,ExtBa=13.70
28/09/2020,11:27:22,TEMP=23.9,BA=5.64,STAT.b=Abs.
28/09/2020,11:42:32,TEMP=25.6,BA=5.64,STAT.F
28/09/2020,11:57:29,TEMP=25.9,BA=5.52,STAT.D=Abs.,ExtBa=13.52
28/09/2020,12:12:31,TEMP=25.4,BA=5.64,STAT.D=Abs.,ExtBa=13.66
28/09/2020,12:27:30,TEMP=25.6,BA=5.64,STAT.D=Abs.,ExtBa=13.71
28/09/2020,12:42:31,TEMP=25.7,BA=5.64,STAT.F
28/09/2020,12:57:29,TEMP=26.1,BA=5.52,STAT.D=Abs.,ExtBa=13.54
28/09/2020,13:12:29,TEMP=25.6,BA=5.64,STAT.D=Abs.,ExtBa=13.66
28/09/2020,13:27:29,TEMP=26.3,BA=5.64,STAT.D=Abs.,ExtBa=13.69
28/09/2020,13:42:31,TEMP=26.0,BA=5.64,STAT.F
28/09/2020,13:57:29,TEMP=26.1,BA=5.52,STAT.D=Abs.,ExtBa=13.61
28/09/2020,14:12:30,TEMP=26.0,BA=5.64,STAT.D=Abs.,ExtBa=13.68
28/09/2020,14:27:30,TEMP=25.4,BA=5.64,STAT.D=Abs.,ExtBa=13.72
28/09/2020,14:42:31,TEMP=25.1,BA=5.64,STAT.F
28/09/2020,14:55:33,TEMP=25.7,BA=5.52,STAT.B=Abs.,ExtBa=13.54
28/09/2020,15:04:34,TEMP=24.6,BA=5.52,STAT.A=Abs.,ExtBa=13.63
28/09/2020,15:18:38,TEMP=25.0,BA=5.64,STAT.A=Abs.,ExtBa=13.70
28/09/2020,15:30:32,TEMP=24.9,BA=5.64,STAT.A=Abs.,ExtBa=13.74
28/09/2020,15:40:24,TEMP=24.8,BA=5.64,STAT.A=Abs.,ExtBa=13.75
28/09/2020,15:48:46,TEMP=24.9,BA=5.64,STAT.C=Abs.,ExtBa=13.75
28/09/2020,16:01:33,TEMP=25.3,BA=5.52,STAT.b=Abs.
28/09/2020,16:02:10,TEMP=25.0,BA=5.52,STAT.A=Abs.,ExtBa=13.66
28/09/2020,16:07:39,TEMP=24.3,BA=5.52,STAT.A=Abs.,ExtBa=13.65
28/09/2020,16:12:31,TEMP=24.3,BA=5.64,STAT.A=Abs.,ExtBa=13.65
28/09/2020,16:16:51,TEMP=24.1,BA=5.64,STAT.B=Abs.,ExtBa=13.66
28/09/2020,16:25:56,TEMP=24.0,BA=5.52,STAT.A=Abs.,ExtBa=13.66
28/09/2020,16:33:03,TEMP=23.8,BA=5.64,STAT.A=Abs.,ExtBa=13.69
28/09/2020,16:38:51,TEMP=23.6,BA=5.64,STAT.A=Abs.,ExtBa=13.72
28/09/2020,16:43:40,TEMP=23.3,BA=5.52,STAT.A=Abs.,ExtBa=13.73
28/09/2020,16:47:41,TEMP=23.0,BA=5.52,STAT.A=Abs.,ExtBa=13.72
28/09/2020,16:51:09,TEMP=23.0,BA=5.64,STAT.A=Abs.,ExtBa=13.69